2024-147D

Last updated on Mon Sep 16 2024 00:02:03 GMT+0000 (Coordinated Universal Time)

1 60457U 24147D 24259.06897438 .00031181 00000+0 78353-3 0 9999 2 60457 37.3664 112.7467 0031599 244.2906 115.4591 15.38598410 4605
UTC large
Height (km)
Speed (km/s)
/
Latitude / Longitude
Inclination (degrees)
Orbital Period (minutes)
Azimuth
Elevation
Range (km)
Doppler Factor

Next 0 passes for location: London (51.5072 / 0.1276)

Sorry there are no passes over London.